{"data":{"norad_id":53828,"epoch":"2026-05-25T04:52:27.592032Z","epoch_age_seconds":57377,"freshness":"FRESH","line1":"1 53828U 22114L   26145.20309713  .00000416  00000+0  44241-4 0  9998","line2":"2 53828  53.2141 320.5441 0001297  85.4233 274.6908 15.08838243204382","mean_motion":15.08838243,"eccentricity":0.0001297,"inclination_deg":53.2141,"raan_deg":320.5441,"arg_perigee_deg":85.4233,"mean_anomaly_deg":274.6908,"bstar":4.4241e-5,"rev_number":20438,"period_min":95.437665812133,"perigee_km":538.85150963242,"apogee_km":540.64600919841,"semimajor_km":6917.8857594154,"source":"CELESTRAK","updated_at":"2026-05-25T13:38:17.571077Z"}}